Temperature
15 15 16 16 13 12 13 14 16 17 17 18 19 18 17 17 17 17 16 16 16 16 15 15 15 15 15 15 15 15 15 15 15 15 15 15 14 14 14 15 15 15 14 14 14 14 14 14 14
15 15 16 15 12 12 13 14 15 16 18 19 19 18 17 16 17 17 16 16 16 16 15 15 15 15 15 15 15 15 15 15 15 15 15 14 14 14 14 14 14 14 14 14 14 14 14 14 14
15 15 15 11 12 13 14 15 15 17 18 18 18 18 17 16 16 17 17 16 16 16 15 15 15 15 15 15 15 15 15 15 14 14 14 14 14 14 14 14 14 14 14 14 14 14 14 14 13
15 15 14 11 13 13 14 15 15 16 18 18 17 16 16 16 17 17 17 16 16 16 15 15 15 15 15 15 15 15 15 14 14 14 14 14 14 14 14 14 14 14 14 14 14 14 14 14 13
14 14 11 11 12 13 14 15 16 15 16 17 17 15 15 16 16 16 16 16 16 16 15 15 15 14 14 14 14 14 14 14 14 14 14 14 14 14 14 14 14 14 14 14 14 14 14 13 13
14 11 10 11 12 14 14 16 16 15 15 16 16 15 15 15 16 16 16 15 15 15 15 15 14 14 14 14 14 14 14 14 14 14 14 13 13 14 14 14 14 14 14 13 13 13 13 13 13
12 10 10 11 12 13 14 15 15 14 14 15 16 14 14 15 15 15 15 15 15 15 14 14 14 14 14 14 14 14 14 14 14 14 14 13 13 13 13 13 13 13 13 13 13 13 13 13 13
13 10 11 11 12 13 14 15 15 15 15 16 16 14 14 15 14 14 14 14 14 14 14 14 14 13 13 13 13 13 13 13 13 13 13 13 13 13 13 13 13 13 13 13 13 13 13 13 13
13 9 10 11 12 13 14 14 15 15 15 15 15 16 15 15 14 14 14 14 14 14 14 13 13 13 13 13 13 13 13 13 13 13 13 13 13 13 13 13 13 13 13 13 13 13 13 13 13
12 9 10 12 12 12 13 13 14 14 14 14 14 15 15 14 14 14 14 14 14 14 13 13 13 13 13 13 13 13 13 13 13 12 13 13 13 13 13 13 13 13 13 13 13 13 12 12 12
10 9 11 12 13 13 12 13 13 13 12 13 14 14 14 14 14 14 13 13 14 13 13 13 13 13 13 13 12 12 12 12 12 12 12 12 12 13 13 13 13 13 12 12 12 12 12 12 12
10 10 11 12 12 12 12 12 12 12 13 14 14 14 14 13 13 13 13 13 13 13 13 13 12 12 12 12 12 12 12 12 12 12 12 12 12 12 12 12 12 12 12 12 12 12 12 12 12
9 10 11 11 12 12 12 11 11 12 13 13 13 13 13 13 13 13 13 13 13 13 13 12 12 12 12 12 12 12 12 12 12 11 12 12 12 12 12 12 12 12 12 12 12 12 12 12 12
9 10 10 11 11 11 11 10 10 11 13 13 13 13 13 13 13 13 12 12 12 12 12 12 12 12 12 11 11 11 11 11 11 11 11 11 12 12 12 12 12 12 12 12 12 12 12 12 11
10 9 9 9 10 10 10 9 9 11 12 12 12 12 12 13 13 13 12 12 12 12 12 12 12 12 11 11 11 11 11 11 11 11 11 11 11 11 12 12 12 12 12 12 12 12 11 11 11
8 8 7 9 9 10 10 9 10 11 11 11 11 12 12 12 12 12 12 12 12 12 12 12 12 11 11 11 11 11 11 11 11 11 11 11 11 11 11 11 11 11 11 11 11 11 11 11 11
7 6 7 8 9 9 9 8 9 11 10 10 10 11 11 12 12 12 12 12 12 12 11 11 11 11 11 11 10 10 10 10 10 10 10 10 11 11 11 11 11 11 11 11 11 11 11 11 11
6 6 7 7 8 8 8 8 8 10 9 9 10 10 10 11 11 11 11 11 11 11 11 11 11 11 10 10 10 10 10 10 10 10 10 10 10 10 10 10 10 10 10 10 10 10 10 10 10
7 7 7 7 8 8 7 7 8 8 8 8 9 9 10 10 11 11 11 11 11 11 11 11 11 10 10 10 10 10 9 9 9 9 9 10 10 10 10 10 10 10 10 10 10 10 10 10 10
7 6 6 7 7 7 7 7 7 7 8 8 8 9 9 10 10 10 11 10 11 10 10 10 10 10 10 10 10 9 9 9 9 9 9 9 9 9 9 9 9 9 9 9 9 9 9 9 9
7 6 6 6 7 7 6 6 7 7 8 8 8 9 9 9 10 10 10 10 10 10 10 10 10 10 10 9 9 9 8 8 8 8 8 9 9 9 9 9 9 9 9 9 9 9 9 9 8
6 6 6 6 5 5 6 5 6 6 6 7 7 8 8 8 9 9 9 9 9 9 9 9 9 9 9 9 9 8 8 8 8 8 8 8 8 8 8 8 8 9 9 9 9 9 9 8 8
6 6 6 6 5 4 5 4 5 6 6 6 6 7 8 8 8 9 9 9 9 9 9 9 9 9 8 8 8 8 8 8 8 8 8 8 8 8 8 8 8 8 8 8 8 8 8 8 8
6 5 5 4 4 4 4 4 5 5 6 6 6 7 7 8 8 8 8 8 8 8 8 8 8 8 8 8 8 8 7 7 7 7 7 7 7 7 7 8 8 8 8 8 8 8 8 8 7
5 4 3 3 3 4 4 4 5 5 6 6 6 6 7 7 7 7 7 7 8 7 7 7 7 7 7 7 7 7 7 7 7 7 7 7 7 7 7 7 7 7 7 7 7 7 7 7 7
4 4 3 3 3 4 4 4 5 5 6 6 6 6 6 6 7 7 7 7 7 7 7 7 7 7 7 7 7 7 6 6 6 6 6 7 7 7 7 7 7 7 7 7 7 7 7 7 6
4 4 4 3 2 3 4 3 4 5 5 5 5 5 5 6 6 6 6 6 6 6 6 7 7 7 6 6 6 6 6 6 6 6 6 6 6 6 6 6 6 6 6 6 6 6 6 6 6
4 3 2 3 3 4 4 4 4 4 4 4 4 4 5 5 6 6 6 6 6 6 6 6 6 6 6 6 6 6 6 6 6 6 6 6 6 5 6 6 6 6 6 6 6 6 5 5 5
3 3 2 2 2 3 3 4 4 4 4 3 3 4 4 5 5 5 5 5 5 5 5 5 6 6 6 6 6 6 5 5 5 5 5 5 5 5 5 5 5 5 5 5 5 5 5 5 5
3 3 2 2 2 1 2 4 5 4 3 3 3 4 4 5 5 5 5 5 4 4 5 5 5 5 5 5 5 5 5 5 5 5 5 5 5 5 4 4 4 5 5 5 5 5 5 4 4
Wind_Speed
6 5 3 4 4 2 4 5 4 2 2 2 1 5 6 4 3 3 3 7 10 10 12 14 14 15 14 14 14 13 13 12 12 11 11 11 11 11 11 11 11 11 11 11 11 11 11 11 11
4 2 4 4 4 3 5 5 5 6 5 1 2 4 5 2 2 6 5 8 12 12 12 13 14 14 14 14 14 13 12 12 11 11 11 11 11 11 10 11 10 10 10 10 10 10 10 10 10
3 2 4 4 4 7 6 5 8 6 4 1 2 3 3 4 3 5 6 11 12 10 12 13 15 15 15 14 14 13 13 12 11 11 11 11 10 10 10 10 10 10 10 10 10 10 10 10 9
3 4 3 2 7 7 5 4 3 1 2 1 3 3 1 0 4 5 9 12 12 9 12 14 15 15 14 14 14 13 12 12 11 11 11 10 10 9 9 9 9 9 9 9 9 9 9 9 9
4 4 2 3 7 5 4 4 2 1 1 1 2 3 1 4 3 9 11 12 12 10 11 13 15 14 14 14 14 13 12 12 11 11 10 10 10 9 9 9 9 9 9 9 8 8 8 8 8
3 3 3 6 8 5 4 3 2 2 2 1 2 3 1 2 5 8 10 10 10 10 10 12 14 14 14 13 13 13 12 12 11 11 10 10 9 8 8 8 9 9 9 8 8 8 8 8 7
4 4 5 5 5 6 5 2 3 3 3 3 2 4 1 1 3 7 9 9 8 9 9 8 11 13 13 13 13 12 12 11 11 10 10 9 8 8 8 8 8 8 8 8 8 7 7 7 6
4 3 3 4 6 6 3 1 3 4 4 2 3 6 4 5 4 7 8 8 7 7 7 7 8 9 10 11 12 12 11 11 10 10 9 8 8 8 7 8 7 7 7 7 8 7 7 6 5
3 2 6 7 6 4 1 1 2 1 1 1 0 4 5 7 7 8 7 6 6 6 6 6 7 8 8 9 10 11 10 10 10 9 9 8 6 6 6 6 7 7 6 6 7 7 7 6 5
3 5 10 5 4 3 1 1 2 1 1 1 2 2 3 6 8 9 9 9 8 8 7 6 7 7 8 8 8 8 8 9 8 8 8 7 6 5 5 6 6 6 6 6 6 6 5 5 4
4 7 6 4 3 2 2 3 2 2 4 5 5 4 4 5 5 7 8 9 9 9 8 7 8 8 7 6 7 6 6 7 7 8 8 7 6 5 5 4 4 4 4 4 4 4 4 3 3
3 6 5 4 3 3 4 3 4 5 8 6 6 7 6 6 7 8 8 7 7 7 8 7 7 7 7 7 6 6 6 5 5 7 8 7 5 4 4 4 4 3 3 3 3 3 3 3 3
5 6 5 6 4 4 3 5 5 8 8 4 4 5 7 7 6 6 6 6 7 8 8 8 7 8 7 6 6 6 6 6 7 7 8 8 5 4 3 3 3 3 3 3 2 2 2 2 2
4 4 6 6 6 5 6 7 5 9 6 4 5 6 7 8 7 6 5 6 7 8 8 8 8 8 8 6 5 6 6 6 6 6 7 8 7 5 4 3 3 3 3 3 3 2 2 2 1
2 2 6 5 4 3 2 7 8 8 4 5 7 7 7 7 6 8 9 8 8 8 7 7 8 7 8 7 6 6 6 7 6 6 8 8 8 7 5 3 2 2 3 4 4 3 3 2 2
2 1 4 5 3 3 3 9 7 6 4 7 7 7 7 7 7 8 8 8 7 7 7 7 7 7 7 6 5 5 6 6 5 6 7 8 8 7 6 4 2 3 4 3 3 3 2 2 1
1 3 5 5 3 2 4 8 7 6 5 7 7 7 6 6 6 7 7 8 8 8 8 7 7 7 7 6 5 4 5 5 5 6 6 7 8 8 6 4 3 4 3 2 3 2 3 2 1
5 4 4 6 3 2 6 10 10 8 6 8 8 8 7 7 8 7 6 6 7 7 7 7 7 6 6 5 4 3 3 3 4 5 6 7 7 7 6 4 3 4 3 2 3 3 2 2 2
5 5 7 8 5 4 8 12 12 9 7 8 8 8 7 7 6 4 4 4 5 6 6 7 7 6 6 5 5 4 4 3 3 4 6 7 7 7 6 4 3 3 3 3 4 4 3 2 2
5 6 8 8 5 4 8 12 11 8 8 8 8 8 7 5 3 2 2 3 5 6 7 7 7 7 6 6 5 3 3 2 2 3 4 6 7 7 6 5 4 4 3 3 4 4 3 2 2
6 7 7 7 7 4 5 8 7 6 4 4 5 5 4 5 5 3 3 3 4 6 7 7 7 6 5 5 4 4 3 2 1 2 3 3 5 6 6 6 5 4 4 4 4 4 4 3 1
7 6 6 5 4 5 2 5 7 6 5 4 4 3 3 3 3 3 3 4 5 6 6 6 6 6 5 5 6 7 5 4 3 3 3 3 4 5 6 6 5 4 4 4 4 4 3 4 3
5 4 4 4 4 4 3 4 8 3 5 6 5 4 3 3 3 3 3 4 4 4 5 5 6 5 5 6 7 7 5 3 2 2 3 3 2 3 5 5 5 4 4 5 5 4 4 3 4
2 2 3 2 0 5 6 6 6 3 5 5 4 3 2 2 1 1 1 2 2 3 3 4 5 5 5 6 6 6 6 5 4 3 4 3 2 2 3 4 5 4 4 5 5 5 5 4 3
2 3 2 3 2 6 3 5 7 6 4 4 4 3 2 2 1 1 1 2 2 3 3 4 5 5 5 6 6 6 6 7 6 5 5 4 2 2 4 4 4 4 4 5 4 4 4 4 4
4 6 5 4 5 5 2 5 5 4 1 1 1 1 1 1 1 1 1 2 2 3 3 4 4 4 4 5 5 5 5 5 4 5 5 5 4 3 4 4 4 5 5 5 4 4 4 4 4
3 4 4 3 2 4 5 5 6 2 3 3 2 2 1 0 1 1 1 1 2 2 3 4 4 3 4 4 4 5 5 5 5 5 4 4 3 3 3 3 4 4 5 5 5 4 4 4 4
3 4 3 3 3 5 5 4 4 3 2 1 1 1 2 1 0 0 0 1 1 1 2 2 3 4 3 4 4 4 4 5 5 5 5 4 4 3 4 4 4 4 4 5 5 4 3 4 4
1 2 2 2 2 3 4 6 3 4 4 2 1 2 2 1 1 1 1 1 1 0 1 2 2 2 3 3 3 4 4 4 4 4 5 5 4 4 5 5 5 4 4 4 5 4 4 4 4
4 4 5 3 4 3 3 7 3 2 2 1 1 2 2 2 1 1 1 1 1 1 1 1 1 2 3 3 3 4 3 3 3 3 4 4 4 4 5 5 5 5 5 5 6 5 5 5 5
Wind_Direction
319 349 67 62 65 65 235 243 235 227 224 225 172 117 123 132 153 171 149 143 135 144 152 150 147 143 139 135 130 129 127 124 123 122 121 118 115 116 115 112 110 107 102 99 96 93 91 90 90
343 31 62 69 117 193 250 237 225 236 218 189 75 95 94 102 112 124 135 150 141 144 147 148 146 143 140 136 133 130 127 126 125 125 123 122 119 119 118 116 116 112 108 103 100 99 96 93 92
349 68 95 102 163 197 216 217 212 233 255 216 59 54 115 147 149 158 163 145 137 139 143 147 145 142 140 137 134 132 129 127 126 126 124 123 124 122 121 120 118 114 109 106 107 104 102 99 96
61 57 68 128 219 224 211 222 211 237 321 14 120 71 52 315 171 163 143 140 136 138 142 146 145 143 141 139 137 134 132 129 126 125 125 123 121 121 120 119 119 117 113 108 107 108 107 104 101
65 92 120 227 238 244 239 249 249 239 272 353 110 125 21 335 107 128 138 140 141 142 143 149 147 146 143 139 138 136 134 131 129 127 125 127 124 120 121 120 118 118 117 113 110 111 108 107 105
74 90 155 222 237 249 252 249 263 288 281 333 84 129 201 327 109 131 137 140 143 144 145 151 151 149 146 143 140 138 136 133 130 127 125 125 125 126 125 126 124 123 123 120 115 117 113 108 101
127 137 196 214 233 245 245 223 189 231 257 250 162 139 179 228 154 137 132 130 133 137 139 144 151 151 149 147 145 143 141 138 133 128 125 125 127 129 130 131 130 130 129 124 121 121 118 111 100
145 141 214 220 218 236 234 206 190 197 235 256 140 151 190 208 166 126 123 125 131 135 140 143 143 145 148 150 149 146 144 141 136 130 125 125 125 125 127 130 134 135 134 133 131 129 122 115 108
120 149 221 217 207 226 233 273 299 265 153 347 314 186 190 159 132 121 125 127 139 146 150 149 143 142 144 149 154 150 147 143 136 132 126 120 118 120 123 129 134 137 138 140 140 135 128 116 110
138 204 228 227 209 211 269 252 265 333 336 327 346 0 113 134 139 149 157 162 165 168 170 164 157 152 149 151 150 148 146 143 139 138 131 124 121 122 124 125 131 133 132 135 140 136 123 107 99
175 212 240 261 250 252 287 287 265 193 241 223 207 190 164 161 162 171 178 176 178 176 173 175 168 162 157 150 148 145 145 142 142 142 138 129 119 116 113 109 109 120 125 119 121 112 102 103 106
220 252 252 264 259 240 247 270 272 239 238 223 206 184 175 181 191 192 191 190 181 177 181 179 173 167 164 159 157 154 151 147 147 153 149 136 123 118 117 115 117 117 130 124 113 102 98 106 115
239 260 277 280 291 270 258 255 267 259 254 232 208 182 184 190 207 211 202 196 186 185 188 185 177 174 171 165 164 161 161 160 161 160 160 152 140 144 140 135 133 134 137 137 121 111 102 105 123
237 265 286 290 287 277 250 264 256 258 243 229 218 205 201 202 205 212 210 206 198 194 192 187 181 180 173 176 174 168 167 162 159 164 167 161 155 151 153 148 144 145 154 151 145 138 128 119 111
281 300 304 280 264 255 252 274 243 249 237 228 228 222 218 218 211 207 209 208 203 195 186 184 182 177 175 178 178 169 167 162 159 165 166 162 160 157 153 156 162 159 147 134 123 116 111 115 111
2 307 274 279 251 239 191 256 257 255 237 240 241 238 233 234 225 222 216 212 204 191 184 184 176 175 177 173 169 170 166 162 164 163 163 164 163 160 151 156 167 153 140 131 129 129 116 115 124
329 239 248 278 246 215 209 256 266 264 237 243 246 245 241 242 242 234 220 207 200 192 185 182 173 173 174 168 161 161 166 167 167 162 160 164 164 163 153 159 159 146 135 138 146 133 124 125 111
229 234 248 249 266 254 253 262 274 277 245 246 249 251 247 242 241 233 219 204 193 184 179 178 171 170 164 157 146 140 153 165 162 162 164 162 163 163 152 152 151 142 142 146 142 132 118 128 122
216 236 259 263 265 265 257 266 270 269 262 258 255 247 243 244 249 227 204 190 176 170 173 177 172 169 160 161 163 162 178 178 176 170 165 163 163 163 156 154 154 152 163 166 152 134 120 110 115
236 250 267 284 282 271 270 273 270 259 248 243 242 243 239 243 252 232 190 177 178 179 178 177 175 171 175 176 172 167 163 176 181 166 161 164 164 167 167 164 169 166 161 153 148 137 135 133 128
252 241 250 265 302 303 294 293 272 266 259 255 248 237 230 213 215 209 189 193 181 185 184 180 177 172 172 160 145 130 108 100 123 163 172 168 167 172 173 171 169 170 166 170 170 158 155 163 168
255 249 247 259 278 277 257 282 282 270 275 261 254 238 230 222 205 201 194 200 193 194 185 177 171 165 162 155 156 156 165 184 198 188 183 173 168 171 172 171 169 171 171 170 178 171 165 160 171
236 262 251 257 243 274 248 236 281 273 260 255 248 241 239 227 203 200 200 193 189 181 175 173 163 161 161 164 163 164 167 178 156 150 162 170 176 172 170 172 172 175 179 177 176 170 167 170 175
249 11 5 15 106 262 230 210 273 246 237 248 249 253 245 231 202 186 184 155 146 146 157 158 157 163 164 166 167 171 171 164 156 161 173 184 184 189 183 175 176 179 182 181 179 178 172 175 173
93 97 17 341 292 251 232 213 251 261 249 217 221 235 230 197 181 146 126 135 142 146 155 157 155 163 166 167 170 173 175 173 176 178 181 183 192 209 207 194 186 184 186 183 179 177 177 175 176
211 163 172 213 239 275 271 234 259 288 303 104 123 141 136 149 163 181 171 161 165 164 156 155 158 165 168 170 174 170 169 176 182 183 181 188 202 209 202 195 189 184 183 179 176 180 184 178 182
176 204 189 168 251 266 260 277 298 358 25 35 50 58 33 217 184 189 187 176 178 175 173 169 168 168 171 173 170 170 174 181 184 183 184 191 199 200 186 192 190 187 183 179 177 190 192 181 188
185 162 117 159 201 255 274 258 249 258 265 344 21 344 324 304 269 10 193 207 196 192 186 167 168 171 174 173 177 174 174 183 182 176 185 192 196 196 182 190 191 190 188 182 182 191 193 186 196
187 162 155 169 194 201 264 269 237 223 213 204 254 299 293 295 279 259 266 238 203 142 161 171 171 168 171 178 177 169 176 178 176 182 193 194 195 194 192 197 197 199 199 192 190 195 193 195 204
207 198 160 177 242 219 235 268 295 242 221 197 271 306 299 297 290 267 231 194 170 185 200 201 192 187 192 187 181 177 180 176 179 190 199 195 195 197 197 194 197 200 200 200 195 198 199 202 207
Height
1511 1512 1514 1516 1520 1528 1527 1519 1512 1508 1507 1505 1504 1504 1505 1508 1512 1517 1513 1512 1514 1516 1518 1520 1522 1524 1525 1526 1527 1528 1529 1530 1531 1532 1533 1533 1534 1535 1535 1536 1536 1536 1537 1537 1537 1538 1538 1538 1538
1511 1512 1515 1516 1524 1532 1525 1515 1511 1506 1504 1504 1504 1504 1504 1507 1508 1510 1510 1512 1515 1516 1518 1520 1522 1523 1525 1526 1527 1528 1529 1530 1531 1532 1532 1533 1534 1535 1535 1536 1536 1537 1537 1538 1538 1538 1538 1538 1539
1510 1512 1514 1517 1523 1524 1517 1509 1506 1503 1503 1503 1504 1504 1505 1507 1507 1509 1510 1512 1514 1516 1518 1520 1521 1523 1524 1526 1527 1528 1529 1530 1531 1531 1532 1533 1534 1535 1535 1536 1536 1537 1537 1538 1538 1538 1538 1539 1539
1510 1512 1514 1519 1518 1512 1508 1504 1503 1503 1502 1502 1503 1505 1506 1508 1508 1509 1510 1511 1514 1516 1517 1519 1521 1523 1524 1525 1526 1527 1528 1529 1530 1531 1532 1533 1534 1534 1535 1536 1536 1537 1537 1537 1538 1538 1539 1539 1539
1509 1511 1516 1519 1514 1508 1504 1503 1503 1502 1502 1502 1503 1504 1506 1507 1507 1508 1510 1511 1513 1515 1517 1519 1520 1522 1524 1525 1526 1527 1528 1529 1530 1531 1531 1532 1533 1534 1535 1535 1536 1536 1537 1537 1538 1538 1539 1539 1539
1509 1510 1519 1518 1511 1505 1503 1502 1502 1502 1502 1502 1503 1504 1505 1507 1507 1508 1510 1511 1513 1515 1516 1518 1520 1521 1523 1524 1525 1526 1528 1528 1529 1530 1531 1532 1532 1533 1534 1535 1535 1536 1536 1537 1537 1538 1538 1539 1539
1508 1512 1514 1512 1509 1505 1502 1501 1502 1502 1501 1502 1503 1504 1505 1506 1507 1508 1509 1511 1513 1514 1516 1517 1518 1520 1522 1523 1524 1526 1527 1528 1528 1529 1530 1531 1532 1533 1533 1534 1535 1535 1536 1536 1537 1537 1538 1539 1539
1505 1509 1510 1509 1506 1503 1500 1499 1500 1500 1500 1501 1501 1502 1503 1505 1506 1507 1509 1511 1512 1514 1515 1516 1517 1519 1520 1522 1523 1525 1526 1527 1527 1528 1529 1530 1531 1532 1533 1533 1534 1535 1535 1536 1536 1537 1537 1538 1539
1504 1510 1509 1504 1502 1500 1498 1498 1498 1499 1499 1499 1499 1500 1500 1502 1504 1506 1507 1509 1511 1512 1513 1514 1515 1517 1519 1520 1522 1523 1524 1525 1526 1527 1528 1529 1530 1531 1532 1532 1533 1534 1534 1535 1535 1536 1536 1537 1538
1502 1507 1501 1498 1497 1497 1497 1497 1498 1498 1497 1498 1498 1498 1499 1501 1502 1503 1504 1506 1507 1509 1511 1512 1514 1515 1517 1518 1520 1521 1522 1524 1525 1526 1527 1528 1528 1530 1530 1531 1532 1533 1533 1534 1534 1535 1536 1537 1538
1499 1500 1496 1496 1496 1496 1496 1496 1497 1496 1496 1496 1496 1497 1498 1499 1500 1501 1502 1503 1505 1506 1508 1510 1511 1513 1514 1516 1517 1519 1520 1522 1523 1524 1525 1526 1527 1528 1529 1530 1531 1531 1532 1533 1533 1534 1535 1536 1537
1498 1496 1495 1494 1494 1494 1495 1495 1495 1494 1493 1494 1495 1495 1496 1497 1498 1499 1500 1502 1503 1504 1506 1508 1509 1510 1512 1513 1515 1516 1518 1519 1521 1522 1523 1524 1525 1526 1527 1528 1529 1530 1531 1532 1532 1533 1534 1534 1535
1496 1494 1493 1493 1493 1493 1493 1493 1493 1491 1490 1492 1492 1493 1494 1494 1495 1497 1498 1499 1500 1501 1503 1505 1506 1508 1509 1511 1512 1514 1515 1517 1518 1520 1521 1522 1523 1524 1525 1526 1528 1528 1529 1530 1530 1531 1532 1533 1534
1494 1493 1493 1492 1491 1491 1491 1490 1491 1487 1488 1489 1489 1490 1491 1492 1493 1494 1495 1496 1497 1498 1500 1501 1503 1505 1506 1508 1509 1511 1513 1514 1516 1517 1518 1520 1521 1522 1523 1524 1525 1526 1527 1528 1529 1529 1530 1531 1531
1493 1494 1493 1490 1489 1489 1490 1489 1486 1485 1486 1486 1486 1486 1487 1488 1489 1490 1491 1492 1494 1495 1496 1498 1500 1501 1503 1505 1506 1508 1510 1511 1513 1515 1516 1517 1519 1520 1521 1522 1523 1524 1525 1526 1526 1527 1528 1529 1529
1494 1496 1496 1489 1488 1487 1492 1488 1482 1483 1483 1483 1482 1482 1483 1483 1484 1485 1487 1489 1490 1491 1492 1494 1496 1498 1499 1501 1503 1505 1507 1508 1510 1512 1513 1515 1516 1517 1519 1520 1521 1522 1523 1523 1524 1524 1525 1526 1527
1498 1500 1496 1491 1486 1486 1489 1486 1480 1480 1480 1479 1479 1479 1479 1479 1480 1481 1482 1484 1486 1487 1489 1490 1492 1494 1496 1498 1500 1502 1504 1506 1507 1509 1510 1512 1513 1515 1516 1517 1518 1519 1520 1521 1521 1522 1523 1524 1524
1498 1497 1494 1492 1486 1486 1486 1483 1478 1477 1477 1476 1475 1475 1475 1475 1476 1477 1478 1479 1481 1483 1485 1487 1488 1490 1492 1494 1496 1499 1500 1502 1504 1506 1507 1509 1510 1512 1513 1515 1516 1517 1518 1518 1519 1520 1521 1521 1522
1491 1492 1492 1488 1485 1485 1483 1480 1475 1474 1473 1472 1471 1471 1471 1471 1472 1473 1474 1476 1477 1479 1481 1483 1484 1486 1488 1490 1492 1494 1496 1498 1500 1502 1504 1506 1508 1509 1510 1512 1513 1514 1515 1516 1516 1517 1518 1519 1519
1489 1491 1490 1486 1483 1484 1482 1477 1472 1470 1469 1468 1467 1467 1467 1467 1468 1469 1471 1472 1473 1474 1476 1478 1480 1482 1484 1486 1488 1490 1493 1495 1497 1499 1501 1503 1505 1506 1508 1509 1510 1511 1512 1513 1514 1514 1515 1516 1517
1487 1489 1488 1487 1483 1482 1482 1477 1470 1467 1465 1465 1464 1463 1464 1464 1464 1466 1467 1468 1469 1471 1473 1474 1476 1478 1480 1482 1485 1487 1490 1492 1494 1496 1497 1500 1502 1503 1505 1506 1507 1508 1509 1510 1511 1512 1512 1513 1515
1486 1483 1484 1484 1488 1489 1486 1485 1470 1466 1464 1462 1461 1460 1460 1461 1462 1463 1464 1465 1466 1468 1470 1471 1473 1475 1477 1479 1481 1483 1485 1487 1489 1492 1494 1496 1498 1500 1501 1503 1504 1505 1507 1507 1508 1509 1510 1511 1512
1484 1482 1482 1483 1487 1490 1487 1488 1473 1466 1464 1460 1459 1458 1458 1459 1459 1460 1461 1462 1463 1465 1467 1468 1470 1472 1474 1475 1477 1479 1482 1484 1487 1489 1491 1493 1495 1497 1498 1500 1501 1502 1504 1504 1506 1507 1508 1508 1509
1482 1483 1484 1487 1490 1490 1483 1485 1474 1467 1460 1457 1456 1456 1456 1457 1458 1458 1459 1459 1461 1462 1464 1465 1467 1469 1471 1472 1474 1476 1478 1481 1483 1485 1487 1489 1491 1493 1495 1496 1498 1499 1500 1501 1502 1504 1504 1505 1506
1483 1489 1496 1496 1496 1487 1478 1478 1470 1459 1455 1454 1454 1454 1455 1456 1456 1456 1457 1458 1459 1460 1462 1463 1464 1466 1468 1470 1471 1473 1476 1478 1480 1482 1484 1486 1487 1489 1491 1493 1494 1496 1497 1498 1499 1500 1501 1502 1502
1483 1485 1494 1496 1494 1485 1478 1476 1465 1456 1453 1453 1453 1453 1454 1454 1455 1455 1455 1456 1457 1458 1460 1461 1462 1463 1465 1467 1468 1471 1473 1475 1477 1479 1481 1482 1484 1486 1488 1490 1491 1492 1493 1494 1496 1496 1497 1498 1499
1481 1483 1483 1491 1492 1488 1479 1473 1462 1455 1454 1453 1453 1453 1453 1453 1453 1454 1455 1455 1456 1457 1458 1459 1460 1461 1463 1464 1466 1468 1470 1472 1474 1476 1478 1479 1481 1483 1485 1486 1487 1489 1490 1491 1492 1493 1493 1494 1495
1477 1479 1487 1489 1488 1484 1476 1472 1466 1458 1456 1455 1454 1453 1453 1453 1453 1453 1454 1454 1455 1456 1457 1458 1458 1459 1460 1462 1463 1465 1467 1469 1471 1473 1474 1476 1478 1479 1481 1482 1484 1485 1486 1487 1488 1489 1490 1490 1491
1479 1481 1482 1487 1487 1484 1481 1469 1456 1455 1454 1454 1454 1454 1453 1453 1453 1453 1453 1453 1454 1455 1455 1456 1457 1457 1458 1460 1461 1462 1464 1466 1468 1469 1471 1473 1474 1475 1477 1478 1480 1481 1482 1483 1484 1485 1486 1487 1488
1475 1476 1481 1485 1486 1486 1483 1470 1454 1453 1452 1453 1453 1453 1453 1452 1452 1452 1452 1452 1453 1453 1454 1454 1455 1455 1456 1458 1459 1460 1461 1463 1464 1466 1467 1469 1470 1472 1473 1474 1476 1476 1477 1479 1480 1481 1482 1483 1484